星链-3743 (STARLINK-3743 )

导读 | 星芒AI

STARLINK-3743 是 SpaceX Starlink 项目中的一颗低轨通信卫星,属于第 9 批(Group 9)部署的 53 颗卫星之一。该卫星于 2021 年 11 月 19 日由猎鹰 9 号火箭从卡纳维拉尔角发射升空,运行在约 540 公里的轨道高度,旨在为全球提供高速互联网服务。作为 Starlink 网络的一部分,STARLINK-3743 采用先进推进系统,具备自主变轨和规避能力,支持全球用户接入低延迟、高带宽的网络连接。

基本信息
目录编号:
52118
目录名称:
STARLINK-3743
国际标识:
2022-029AG
轨道中心:
EARTH
卫星名称:
星链-3743
卫星全名:
星链-3743 (STARLINK-3743 )
卫星状态:
在轨 (已飞行1373 天)
发射日期:
2022-03-19 UTC
国别 :
美国 (US)
星等 :
--
轨道信息
数据来源 国际轨道数据 AOE轨道数据
星历时间 2025-12-20T20:19:39+0800
12小时前
查看轨道信息
2025-12-16T11:00:00+0800
4天前
查看轨道信息
半长轴 6917.893km 6917.852km
偏心率 0.0001288 0.0001319
轨道倾角 53.219° 53.217°
近地点辐角 92.596° 81.760°
升交点赤经 74.556° 94.257°
平近点角 267.518° 187.074°
近地点 538.864km 538.804km
远地点 540.648km 540.63km
周期 95.438分钟 95.437分钟
每日圈数 15.08836 15.088493
详细信息
固有亮度:
5
最大亮度:
2.5
卫星平台:
Starlink v1.5
覆盖范围:
全球
运营商:
太空探索技术公司
运营商所在国:
美国
制造商(研发单位):
太空探索技术公司
制造商所在国:
美国
使用方式:
暂无
卫星简介
星链(Starlink)计划是由太空探索技术公司(SpaceX)提出的一个巨型低轨卫星互联网星座项目,计划在2019年至2024年间在太空搭建由约1.2万颗卫星组成的“星链”网络,其中1584颗将部署在地球上空550千米处的近地轨道,并从2020年开始工作。该卫星仍在工作。
2D轨道图
3D轨道图
轨道高度分析图
轨道倾角分析图
轨道综合分析图
查看轨道综合分析图